Wind_Speed
82 81 81 81 81 81 80 79 79 78 77 75 74 73 72 70 68 67 65 64 62 60 59 56 55 52 50 51 49 47 46 49 50 48 46 43 43 42 40 38 34 34 32 31 35 38 42 44 45 49 50 48 47 44 43 40 40 42 41 40 39 39 40 39 39 37 34 33 31 30 31 31 30 28 28 26 22 19 18 15 13 14 13 12 11 10 10 10
83 82 80 80 82 81 80 81 81 79 78 77 75 74 73 72 70 68 67 65 64 62 60 58 57 54 53 53 52 50 49 50 51 48 46 45 44 44 41 39 36 34 34 33 34 34 38 42 45 50 51 49 47 45 44 42 41 42 41 39 38 39 40 40 39 38 35 33 32 32 32 32 31 30 28 26 23 21 19 15 14 13 13 12 12 11 10 11
84 82 79 77 79 81 81 81 81 81 79 78 77 76 74 73 71 70 68 67 65 63 61 60 59 56 55 55 54 53 52 53 53 49 47 46 45 45 43 41 38 36 37 36 34 35 37 40 44 49 52 50 48 47 46 44 42 42 42 39 38 39 41 42 40 39 37 35 34 34 33 32 32 30 28 27 25 22 18 16 15 14 14 14 13 13 12 12
86 84 82 78 76 77 79 81 81 81 81 79 78 77 75 74 73 71 69 67 66 65 62 61 60 57 56 56 57 57 56 56 55 50 47 48 47 47 46 43 40 38 38 37 35 38 40 41 43 48 51 50 50 50 48 45 44 44 44 40 39 42 44 43 42 40 39 37 35 35 35 33 32 31 29 28 25 21 19 17 17 16 16 15 14 14 13 13
87 86 85 82 78 74 75 79 80 80 82 81 79 78 76 75 75 72 70 68 67 66 64 62 61 59 58 59 59 59 58 58 56 52 50 49 49 48 47 45 42 41 39 38 39 39 42 46 45 46 51 52 51 51 50 47 45 45 45 43 41 45 46 45 43 41 41 39 36 36 34 34 34 32 30 28 25 23 22 21 19 19 18 16 14 14 13 13
89 87 86 84 82 77 73 76 78 78 80 81 80 79 78 76 76 74 71 70 68 67 65 63 62 60 59 60 61 61 61 60 56 54 53 51 51 50 50 47 44 43 39 38 39 37 42 49 47 46 49 52 52 53 52 49 47 45 45 45 44 46 47 46 45 43 42 40 36 36 36 37 35 32 30 28 27 27 25 22 20 20 19 17 15 13 14 14
91 89 87 85 82 78 74 76 79 78 79 81 81 80 79 78 77 76 73 71 69 67 66 64 64 62 61 61 62 63 62 60 56 55 54 53 52 51 52 51 46 44 40 38 37 36 40 46 45 44 45 48 52 54 54 52 49 46 43 45 46 48 48 47 46 44 43 41 37 38 39 37 35 34 33 30 29 28 25 23 22 21 19 18 16 16 17 17
92 90 88 85 82 76 72 75 80 81 80 80 81 81 80 79 78 77 74 72 70 68 66 65 65 64 62 62 63 63 62 60 57 55 55 54 53 52 53 52 48 44 41 39 38 37 40 42 41 41 42 46 51 54 55 54 51 48 44 44 47 48 48 48 47 45 44 43 40 39 38 37 37 36 34 32 31 29 27 25 23 21 20 20 19 18 19 18
92 91 89 86 84 79 72 71 78 82 82 81 81 81 81 79 79 78 75 73 71 69 67 66 66 65 64 63 63 64 61 58 57 55 55 55 54 52 53 52 48 45 43 41 40 40 40 41 41 40 42 45 49 52 55 55 54 51 46 44 48 48 48 48 47 46 45 44 42 39 39 40 40 37 34 33 32 29 28 26 24 24 23 22 22 20 19 18
92 91 90 87 85 82 75 70 73 77 80 81 81 81 81 80 80 79 77 74 72 70 68 67 66 65 64 64 65 64 61 58 58 57 56 55 54 53 53 52 49 47 46 43 43 43 41 41 41 41 45 46 45 47 52 56 57 54 49 46 48 49 49 49 49 48 46 45 43 40 41 42 41 38 35 33 31 29 28 27 26 25 24 24 23 21 19 18
92 91 90 88 86 83 77 71 70 72 75 79 81 81 81 81 80 79 78 75 73 71 69 68 68 66 65 65 65 64 60 58 58 59 57 56 55 53 52 52 50 48 48 46 44 45 44 42 42 43 46 48 45 43 47 54 58 55 52 49 50 51 50 50 50 49 48 46 44 43 43 44 42 38 35 34 32 31 31 29 27 26 25 25 25 21 19 19
91 92 90 88 86 84 78 72 69 70 72 76 79 81 81 81 80 79 78 76 74 72 70 69 68 66 65 65 65 63 60 58 59 60 59 56 55 54 53 53 52 51 50 49 47 47 47 44 44 44 45 47 47 45 44 50 57 57 54 52 52 53 52 52 52 50 49 48 47 45 45 45 41 37 36 36 33 33 33 30 28 27 26 27 25 22 20 20
89 90 91 89 86 83 79 74 70 67 68 72 76 79 81 80 80 79 77 76 73 69 69 69 68 67 66 65 65 64 61 59 59 60 60 58 55 55 55 55 54 54 52 52 50 48 47 45 44 45 44 45 48 48 44 46 54 58 56 54 54 56 54 53 54 51 51 51 49 48 47 45 39 37 39 38 36 35 33 31 29 28 28 27 25 23 22 21
86 88 90 90 87 84 81 78 73 67 65 66 70 75 79 79 78 79 76 74 71 65 63 65 67 68 68 67 66 64 61 60 59 59 60 58 56 56 56 55 54 54 53 53 51 49 48 47 45 44 44 45 45 46 47 47 51 55 58 57 55 58 57 55 55 53 52 52 51 50 48 43 39 41 43 40 39 38 34 32 32 30 29 27 26 25 23 22
84 85 88 90 89 85 83 81 74 69 66 63 66 69 74 78 77 77 74 71 70 64 59 60 62 66 68 70 67 64 63 62 60 59 59 59 57 57 55 53 54 54 54 53 52 51 50 49 47 46 44 43 43 44 46 47 49 53 57 59 57 59 58 56 57 55 54 54 53 51 49 44 42 45 45 41 41 39 36 35 34 32 30 28 27 26 25 24
81 83 86 88 89 86 84 83 75 69 67 63 65 66 67 73 75 74 72 68 66 63 61 60 61 64 67 71 69 65 65 63 61 59 59 59 59 58 53 51 54 56 57 55 53 52 52 51 49 48 46 44 44 45 44 45 49 52 56 59 58 58 59 58 59 58 56 56 55 54 49 45 45 47 46 42 41 40 38 37 34 33 31 30 28 28 27 25
80 81 83 86 88 87 85 86 80 69 64 61 61 63 63 65 68 70 68 64 61 61 63 62 60 61 65 72 71 67 66 63 61 59 58 59 60 60 57 54 54 56 58 56 54 53 52 53 50 48 47 46 46 47 47 46 47 52 56 57 57 59 60 60 61 60 58 57 56 55 51 46 47 48 46 43 42 41 39 37 35 34 34 32 31 30 28 27
79 79 81 83 85 86 85 89 86 71 64 63 59 59 60 60 63 65 62 60 59 60 63 64 62 61 67 75 74 66 63 60 58 57 56 57 59 59 59 57 55 57 58 57 55 54 53 53 52 50 48 47 46 47 48 46 45 51 56 56 56 59 61 60 61 60 58 57 57 56 52 48 48 48 46 45 43 42 40 38 37 37 36 34 32 31 29 28
78 77 79 81 81 83 84 89 92 76 66 66 61 59 60 62 64 63 62 63 64 63 64 69 70 70 73 75 70 63 60 58 57 57 56 57 59 59 58 57 57 58 60 59 57 56 54 53 53 52 48 46 45 45 46 44 44 51 56 56 56 58 59 59 61 60 58 58 58 57 53 49 47 47 47 45 43 42 41 41 40 39 37 34 33 31 30 29
77 76 76 79 79 81 83 86 92 84 70 65 63 65 70 72 70 67 66 64 63 62 64 68 70 71 71 67 63 60 60 60 58 57 57 59 60 60 58 57 58 58 59 60 59 56 54 53 52 50 46 43 43 43 43 41 45 52 57 57 57 57 58 58 60 61 59 59 59 57 53 49 46 47 48 47 45 44 44 43 41 40 37 35 34 32 30 29
74 74 74 77 77 81 86 85 87 85 74 66 67 71 75 77 73 75 75 66 60 62 64 66 66 67 65 60 58 58 59 60 58 56 56 59 61 61 60 60 60 58 57 59 60 57 56 53 51 48 44 41 40 41 39 39 44 51 56 58 58 57 58 59 61 62 60 60 59 58 56 51 47 48 50 50 48 46 45 44 42 41 39 38 36 33 30 30
71 72 73 75 76 80 85 86 85 82 75 72 72 72 72 70 68 73 74 67 65 66 67 67 68 67 63 58 59 59 58 58 58 57 56 58 61 62 62 63 63 58 54 57 59 58 57 54 50 47 44 41 40 38 37 39 43 47 53 58 60 58 57 60 63 62 61 61 61 60 58 53 49 50 52 53 50 48 47 45 43 42 41 41 38 34 32 33
69 70 72 74 76 78 81 85 86 85 80 76 74 72 71 68 68 72 68 63 67 69 67 67 66 65 62 59 59 61 60 59 58 59 59 59 60 61 63 63 62 58 55 56 57 56 55 53 52 50 46 43 41 38 36 38 40 43 49 54 59 60 59 60 62 63 63 63 62 61 59 54 50 53 55 55 52 50 48 46 45 44 43 42 38 36 36 35
69 69 71 73 75 76 79 83 88 90 85 77 71 71 73 70 70 76 71 64 68 70 66 66 64 62 60 56 56 58 59 57 56 55 57 59 60 60 61 60 59 59 58 56 56 54 51 50 50 49 46 43 42 40 37 36 36 38 43 49 55 60 61 61 62 63 64 64 63 61 60 57 53 55 57 55 53 51 49 48 46 45 43 42 40 39 37 35
69 69 70 72 74 75 77 85 93 95 88 76 68 70 74 71 67 71 72 67 68 71 69 68 67 65 62 58 56 56 55 54 54 52 51 56 60 61 59 58 57 58 59 57 56 54 51 49 49 47 45 43 43 42 41 38 33 31 35 43 51 57 62 65 64 64 64 65 64 62 62 60 56 56 56 54 54 52 50 50 47 45 44 43 43 41 38 35
70 69 69 73 74 74 80 90 97 95 87 77 69 69 72 70 69 69 68 69 71 73 72 70 69 69 66 62 59 57 55 54 54 52 50 52 55 55 54 55 56 56 56 56 56 53 49 48 47 46 44 42 42 42 41 39 35 30 28 34 46 55 61 66 67 65 66 67 65 63 63 62 58 57 56 54 55 53 51 51 49 47 46 45 43 41 38 36
71 70 69 72 74 77 83 91 98 95 85 75 70 71 71 70 73 72 68 71 75 75 73 71 70 69 66 63 61 61 60 59 58 58 56 54 54 52 49 49 52 54 55 55 55 53 49 47 47 46 44 42 40 38 38 38 36 32 27 28 38 50 61 67 68 67 67 67 65 64 64 63 60 58 57 56 56 55 53 52 50 48 47 45 43 41 39 37
71 71 70 72 75 79 82 88 100 97 79 71 72 72 70 70 73 74 72 74 77 76 73 73 72 67 65 63 60 60 59 59 61 62 60 57 55 53 49 45 45 48 51 53 52 50 48 45 44 43 41 38 35 33 32 33 32 30 29 29 31 41 56 67 69 67 67 67 65 65 65 65 63 59 58 58 57 56 54 52 50 49 47 45 43 43 41 39
72 71 70 72 74 77 79 87 100 94 75 68 73 73 69 70 74 76 76 76 76 79 75 74 75 70 67 65 60 59 58 57 60 61 60 58 56 55 50 44 43 43 45 47 45 43 43 42 39 38 36 33 31 30 30 29 28 26 27 29 29 34 47 62 70 70 68 68 67 65 65 66 66 61 58 59 58 57 55 52 51 49 48 46 44 43 42 40
73 71 69 71 74 77 81 88 96 94 82 70 68 74 73 73 79 80 81 79 74 78 80 75 76 74 71 68 64 63 62 60 60 62 63 59 55 54 50 44 43 43 44 45 44 41 41 41 40 38 35 33 32 32 31 29 28 26 27 29 29 33 41 55 69 72 71 72 70 67 65 67 68 64 61 61 59 56 54 52 51 50 48 46 44 43 42 41
73 72 71 72 75 77 81 88 92 94 94 81 68 74 78 76 82 84 83 81 72 75 83 80 75 75 73 70 67 65 65 64 64 65 68 65 57 51 49 46 44 44 44 45 45 42 41 42 41 38 35 35 34 33 32 31 30 30 30 30 31 35 41 52 65 72 74 74 71 68 67 68 70 66 63 61 59 56 54 51 49 49 47 45 44 44 43 43
71 71 71 72 73 73 78 87 91 90 97 94 77 77 84 77 80 86 83 79 74 75 82 82 77 75 73 71 69 66 66 67 67 67 68 69 65 53 45 44 43 44 45 44 44 41 40 40 38 37 35 34 34 33 32 33 33 33 32 33 34 38 43 49 57 64 70 73 72 70 68 70 71 68 63 62 60 56 53 50 47 48 47 45 45 44 44 44
70 70 71 72 70 71 75 83 87 86 94 99 84 78 87 83 79 84 81 77 77 75 76 79 78 74 72 72 72 69 67 66 67 68 66 66 66 58 47 41 40 41 41 41 41 39 38 38 36 36 35 34 34 33 33 33 34 35 35 35 36 37 41 43 46 52 59 67 71 70 69 71 73 70 63 61 61 57 52 50 48 46 45 44 44 44 43 43
69 72 73 73 70 72 76 78 81 79 84 94 90 83 88 87 80 83 82 75 74 73 71 75 79 75 72 72 71 70 67 65 65 67 66 65 66 62 54 44 38 38 38 36 36 34 33 33 32 32 33 33 33 32 31 31 31 33 33 33 34 35 37 39 41 44 49 60 68 69 70 72 73 71 64 58 59 58 53 50 48 44 43 42 41 42 42 43
69 73 74 75 76 77 79 79 78 74 72 82 90 90 89 88 83 84 85 75 70 73 71 72 77 76 74 73 69 69 69 66 65 65 65 66 65 63 60 52 42 38 39 37 34 32 31 30 28 29 30 30 30 30 29 30 31 31 31 31 32 33 36 39 40 41 45 56 65 67 69 71 72 72 65 58 57 58 55 51 47 44 42 41 40 39 40 42
71 74 77 79 82 82 82 84 82 76 74 77 83 88 89 88 85 84 84 74 67 74 73 71 77 77 75 75 71 71 70 66 64 65 64 63 62 60 57 54 49 45 42 38 35 33 32 33 33 33 32 30 30 30 29 31 31 32 33 32 31 33 36 38 40 41 45 52 56 59 65 69 70 71 67 60 56 57 56 52 48 45 43 41 40 39 40 41
73 75 79 82 84 83 84 89 85 77 76 76 77 81 82 84 83 81 81 73 66 74 77 73 77 79 76 76 74 72 70 67 65 65 64 63 63 60 56 53 52 51 46 39 34 33 32 31 32 33 32 30 29 29 29 30 31 32 33 32 32 34 36 38 40 42 44 45 45 49 57 64 68 69 67 63 56 54 55 53 50 47 45 43 41 41 41 42
71 72 75 79 82 82 84 91 90 80 75 73 72 73 75 80 83 80 79 76 70 75 80 76 75 79 77 75 73 70 69 70 69 65 63 63 61 60 60 57 54 54 51 42 35 32 31 30 30 30 30 29 29 29 28 29 30 31 31 30 31 33 34 37 40 40 40 40 40 43 51 59 64 66 66 63 57 52 51 51 50 49 47 46 44 43 43 43
70 71 72 74 77 79 81 88 93 87 81 79 74 70 71 78 84 81 75 75 75 76 80 78 74 75 77 74 71 70 68 69 69 67 65 62 59 56 57 58 58 58 55 49 43 38 35 34 32 31 31 30 30 31 31 31 31 30 31 31 31 32 33 35 37 37 38 39 39 42 47 51 56 62 64 62 58 53 50 50 50 50 49 48 47 46 44 43
69 70 71 72 72 73 77 83 90 91 87 87 83 76 72 74 81 81 74 72 76 79 80 80 76 73 72 71 69 69 68 66 65 65 63 61 58 56 55 56 57 56 54 52 48 43 40 38 36 34 34 34 34 34 33 31 30 28 28 28 28 29 31 34 35 36 37 39 40 43 44 42 45 54 59 60 59 55 50 49 49 49 49 48 49 49 47 45
68 70 71 73 73 74 77 80 86 89 86 84 85 82 77 73 75 80 77 72 76 81 81 80 79 74 69 68 67 67 68 69 66 64 62 61 59 57 56 56 55 55 55 53 50 46 42 40 39 37 36 36 35 33 31 29 28 26 26 25 24 24 26 29 32 33 35 37 39 41 40 34 35 44 50 55 58 55 49 47 47 47 48 49 49 50 50 49
69 72 72 74 77 78 80 82 84 82 78 78 82 83 80 77 74 75 78 77 78 82 83 80 78 74 69 66 63 62 65 68 68 64 60 57 58 57 55 57 57 56 55 53 50 48 45 43 41 39 37 36 34 32 30 29 28 27 28 27 26 27 28 29 30 29 30 32 34 37 36 29 29 36 41 47 53 52 49 47 46 46 48 49 49 48 49 49
68 69 69 73 78 82 83 83 81 76 74 77 79 80 80 79 74 71 75 80 81 83 85 82 78 74 67 63 59 57 58 61 60 57 54 52 54 55 56 57 58 57 56 55 51 49 46 45 44 42 41 39 37 34 32 31 31 31 31 30 30 31 30 31 29 27 27 29 31 35 34 27 25 30 35 41 47 50 49 46 44 45 46 47 47 47 47 48
68 64 67 72 74 77 79 76 73 73 75 78 80 82 82 80 75 69 71 79 84 85 87 85 82 76 67 60 57 55 55 56 55 54 53 52 53 55 57 58 58 57 55 53 51 49 48 48 47 46 45 44 43 40 37 36 36 36 36 35 34 32 31 30 28 27 28 28 28 31 30 24 20 22 28 33 38 44 47 47 45 45 45 47 47 47 48 49
74 69 70 74 72 71 70 68 67 70 73 77 79 83 84 81 76 71 71 78 84 86 87 86 83 78 70 61 56 54 53 54 54 54 55 55 56 57 58 58 57 56 53 50 49 47 46 47 48 48 48 48 46 42 38 38 39 38 36 34 32 30 29 27 25 26 25 23 25 27 24 21 18 17 22 26 29 35 42 46 48 47 47 49 49 48 48 49
79 79 78 81 79 75 72 69 70 72 74 77 80 83 84 83 78 73 72 78 85 86 87 86 81 76 70 62 58 57 56 55 54 54 54 56 58 58 58 57 55 53 51 50 48 46 44 45 46 46 46 45 42 38 34 33 32 30 28 28 28 27 26 26 25 22 18 18 22 22 20 21 20 19 22 22 22 26 32 38 42 44 46 48 48 49 49 50
77 81 83 84 85 83 80 77 75 74 75 77 80 82 82 81 79 77 76 80 87 88 86 83 79 74 70 65 61 59 59 58 57 56 55 55 56 56 56 55 53 51 49 48 48 46 46 46 46 45 45 43 41 38 34 31 29 27 26 27 27 27 27 28 25 19 15 19 21 18 18 23 22 20 19 18 18 21 24 27 31 35 39 43 45 47 47 48
75 78 79 77 78 81 82 79 75 73 74 75 78 79 78 77 77 79 82 86 88 88 85 83 79 74 69 65 63 62 62 60 59 58 57 56 55 55 54 53 52 51 50 49 49 48 47 46 45 45 46 45 44 42 39 35 32 31 31 30 30 31 31 29 25 21 22 24 21 16 18 23 24 21 19 17 17 19 21 23 26 29 32 34 37 39 40 42
73 78 78 74 73 74 74 72 71 73 75 76 77 76 73 72 72 76 85 91 91 88 86 84 80 75 69 65 64 65 65 63 61 59 58 57 56 55 55 55 53 52 51 51 50 49 49 48 48 48 47 46 46 45 43 40 39 38 37 35 35 36 34 31 27 27 29 27 23 21 23 25 26 24 22 20 20 22 24 26 29 30 30 31 32 34 37 38
73 80 81 78 76 76 77 78 77 77 79 79 79 77 74 72 70 74 85 93 93 91 87 84 80 75 69 66 66 66 64 62 60 59 58 58 58 57 57 57 56 54 53 53 53 51 51 51 51 50 50 49 48 47 46 45 44 43 42 41 40 38 36 31 29 32 34 29 26 27 26 24 25 24 22 21 21 23 25 26 28 29 30 32 34 36 39 40
72 80 81 76 75 76 79 81 81 81 81 79 77 76 76 75 73 76 86 93 92 89 86 83 80 74 69 67 67 65 62 60 58 56 55 55 55 55 55 55 55 53 53 54 55 54 53 54 53 52 53 52 50 50 50 48 48 49 48 45 41 39 36 33 33 37 34 27 26 29 26 22 20 18 18 20 21 22 22 21 23 26 30 34 36 38 41 42
74 82 83 78 76 77 75 76 78 78 74 71 72 75 76 76 77 81 87 91 90 87 84 82 79 75 70 68 67 64 61 59 57 54 51 48 46 45 46 47 48 48 48 49 50 51 51 52 52 52 52 51 50 51 51 50 52 53 47 40 39 40 40 39 38 36 31 29 29 28 23 21 20 18 20 24 26 25 24 23 25 28 31 33 34 35 37 39
Wind_Direction
219 218 218 217 215 215 215 215 215 216 216 216 217 217 216 217 218 219 220 220 220 222 223 222 220 217 215 217 216 216 216 219 220 222 226 229 230 228 226 223 219 221 226 230 230 227 226 227 222 217 217 217 218 216 211 211 215 219 221 220 220 220 220 220 219 218 216 216 217 216 214 215 218 219 221 222 219 218 221 219 217 224 225 218 216 211 204 210
220 218 218 217 216 216 216 216 216 216 217 217 217 217 217 217 218 219 220 221 221 221 222 223 221 218 216 217 217 215 215 218 221 222 225 229 231 231 229 226 221 220 225 227 230 231 232 230 223 217 216 217 218 218 216 213 215 219 222 223 222 221 222 222 221 219 217 216 218 219 216 214 217 219 220 221 219 218 219 216 217 224 230 225 219 215 205 208
219 219 218 217 216 217 217 217 217 216 217 218 218 217 217 217 217 219 220 221 222 222 222 223 223 220 217 218 218 217 214 215 220 221 224 228 231 232 231 228 224 223 226 227 228 230 233 230 221 216 216 217 217 218 219 216 217 221 223 223 222 222 223 223 221 219 217 216 217 220 218 216 218 219 220 220 219 220 219 216 216 220 225 223 217 215 208 207
218 219 218 217 216 216 217 218 218 217 217 218 218 218 218 218 218 219 220 222 223 223 223 223 224 222 219 219 219 219 217 216 217 218 221 229 231 233 234 229 224 225 227 229 228 229 233 231 223 217 217 218 217 218 220 218 219 222 223 222 219 221 224 223 222 219 218 217 216 219 219 217 218 220 220 220 219 220 220 216 216 220 224 223 217 216 212 209
216 218 219 218 215 215 216 217 218 218 218 218 218 218 218 218 218 219 220 222 223 224 224 224 225 223 221 221 220 220 219 218 217 216 217 225 230 232 235 230 226 228 228 230 232 234 235 230 223 217 218 220 218 218 220 219 219 222 223 220 217 221 223 223 222 220 219 218 217 219 220 219 219 219 220 219 218 218 218 217 218 221 224 224 218 217 216 213
215 216 217 218 216 215 215 216 217 218 219 218 218 219 219 219 219 219 220 222 223 224 224 224 225 225 223 222 223 221 221 221 218 218 217 220 225 229 233 232 230 231 229 230 235 240 233 223 219 216 217 222 221 219 220 220 220 222 223 220 218 221 223 223 223 220 220 219 217 218 220 220 219 219 221 219 218 219 221 220 220 223 224 223 218 213 215 214
214 215 216 217 217 216 216 216 217 218 219 219 219 219 219 219 219 220 221 221 222 223 224 225 226 226 225 224 225 224 223 224 220 219 220 220 222 226 232 234 234 233 230 228 232 238 230 219 218 218 216 220 224 222 220 221 220 222 223 221 219 221 222 223 223 221 220 219 217 218 220 220 220 220 220 218 219 221 221 221 220 225 227 225 221 213 213 212
214 214 215 215 216 215 215 217 218 219 220 220 219 219 219 220 219 220 221 222 223 224 224 225 226 226 227 226 227 228 226 226 224 220 221 222 223 226 232 235 235 234 230 226 227 232 233 229 229 229 224 220 223 225 223 222 222 221 223 222 220 221 221 223 223 221 221 220 218 218 219 221 221 219 219 218 219 219 219 219 219 224 227 227 225 218 216 215
214 214 214 214 214 213 212 215 218 218 220 221 220 219 220 220 220 220 222 223 223 224 224 225 226 227 228 228 227 229 228 228 227 224 223 223 224 226 231 236 236 234 230 223 223 229 234 236 237 238 235 225 223 226 226 226 225 223 223 223 222 221 222 224 223 222 221 221 219 218 219 221 222 219 218 219 220 221 221 220 219 223 226 228 228 222 219 218
214 214 213 213 213 212 209 212 217 217 218 221 222 221 220 221 221 221 222 223 224 225 225 225 226 227 228 229 229 228 227 227 227 226 224 224 225 226 230 235 236 233 229 224 221 226 230 233 234 236 237 231 224 225 226 227 227 225 223 224 223 222 223 225 225 221 220 222 219 218 219 221 222 219 218 220 221 223 224 222 221 222 225 229 232 227 220 218
214 214 213 212 212 212 208 209 215 217 216 219 222 221 221 221 221 222 222 224 225 225 226 226 227 227 228 229 230 229 227 226 226 226 225 224 225 226 229 234 236 234 232 228 222 225 230 231 232 232 234 234 230 229 229 227 227 226 224 225 225 224 226 228 226 222 220 221 220 218 220 221 222 219 218 220 220 224 225 223 222 221 224 230 233 229 222 218
214 214 213 212 211 211 207 206 213 217 215 217 221 222 221 221 222 222 223 224 225 227 227 227 228 228 228 229 230 230 229 227 226 226 226 224 225 226 228 232 234 234 233 231 226 225 228 231 233 233 232 233 234 234 233 230 228 226 224 227 227 223 226 229 227 223 220 220 220 219 220 221 221 219 218 219 220 224 227 225 223 221 223 229 232 229 224 220
215 214 213 211 210 210 206 205 211 215 214 216 221 223 223 222 222 223 223 225 226 227 228 229 229 229 229 229 229 230 229 228 227 226 227 226 225 227 228 231 234 234 233 232 229 227 228 230 233 235 234 233 236 237 237 234 230 227 224 228 229 224 225 230 228 224 220 219 219 219 221 221 219 219 219 218 219 224 227 226 225 223 224 228 231 230 226 222
216 214 213 210 209 208 204 203 210 213 213 216 221 224 225 224 223 223 224 225 225 226 228 229 230 230 229 229 229 229 229 229 228 227 227 226 226 228 229 231 234 236 235 234 233 231 231 232 233 235 235 234 238 238 237 237 232 228 226 227 230 226 224 228 228 225 222 219 218 218 220 218 216 219 220 217 219 223 226 227 225 225 226 227 229 229 227 223
217 215 214 211 208 207 203 201 206 212 212 216 221 224 225 225 224 224 223 225 225 225 226 227 229 230 230 229 228 229 229 229 229 228 227 226 226 228 230 231 233 235 236 235 235 234 234 235 235 235 234 234 239 239 238 239 233 227 226 226 230 229 224 225 228 225 222 220 219 218 218 215 214 219 220 217 219 223 226 228 227 226 227 228 229 230 228 224
218 216 215 212 208 205 203 200 201 206 206 210 218 221 224 225 225 225 223 224 224 223 225 227 229 230 231 230 228 228 229 230 230 228 226 225 225 226 228 230 230 232 234 234 233 235 236 238 238 236 235 234 237 240 241 243 236 226 225 227 230 230 226 226 227 225 221 220 219 219 216 212 214 220 221 218 219 223 226 227 227 227 228 228 228 229 229 226
219 217 215 214 210 205 203 199 197 200 199 201 212 218 220 222 224 226 223 222 224 222 224 228 230 231 231 229 228 227 229 230 231 229 226 225 225 226 226 229 230 230 233 233 232 234 238 239 240 239 239 238 238 240 242 245 241 230 225 226 228 228 227 227 228 224 221 220 219 219 216 211 215 219 221 219 220 223 226 226 227 228 228 227 226 228 229 228
220 218 216 214 211 207 203 198 196 198 199 199 205 215 220 220 221 224 221 217 220 219 220 224 226 228 229 227 228 228 229 230 231 230 227 225 227 228 229 231 233 232 233 233 232 235 238 239 241 241 241 241 241 243 244 247 247 235 227 226 226 226 227 227 227 224 221 221 220 219 216 213 215 219 220 220 220 224 226 226 226 227 227 227 227 228 229 230
220 218 217 215 211 207 203 199 196 198 203 203 204 212 216 217 217 219 218 215 216 215 216 220 223 226 226 225 227 229 230 231 230 229 226 224 226 229 230 232 234 234 234 235 234 235 238 239 241 241 243 244 245 247 247 247 246 236 229 227 226 226 228 227 225 223 221 221 221 220 218 214 215 219 221 220 221 224 226 227 227 227 227 228 229 229 230 230
221 218 216 215 211 205 202 200 198 199 205 205 206 208 204 205 207 209 213 214 216 219 219 223 227 227 227 227 229 229 229 229 228 228 226 224 225 228 230 231 234 234 235 236 235 235 237 239 241 242 243 245 245 246 245 244 240 232 227 226 226 226 227 227 224 222 221 221 221 220 218 215 215 220 222 221 221 224 226 227 228 228 227 227 228 229 230 230
220 218 216 215 211 204 201 200 198 200 205 205 208 211 205 203 208 211 213 212 211 216 219 224 228 229 230 231 232 232 231 230 229 227 225 224 225 227 229 230 233 236 237 236 235 234 235 238 240 239 239 239 239 241 241 239 236 231 227 226 226 226 225 225 224 221 220 221 220 220 219 215 215 219 223 222 221 223 226 227 228 228 227 226 226 227 228 229
219 217 214 213 211 207 204 201 198 198 202 205 208 211 208 208 215 217 216 214 209 209 214 220 223 225 227 227 227 228 229 230 230 228 226 226 225 227 228 229 231 235 237 236 235 234 235 236 236 235 235 234 235 238 239 237 236 234 230 227 227 227 225 225 224 220 219 220 220 220 219 215 214 218 223 224 222 223 225 226 227 228 227 226 226 226 227 229
218 216 213 212 210 208 205 201 198 197 199 204 207 208 204 204 215 220 217 215 213 211 212 216 219 219 220 221 222 224 225 227 230 230 228 228 228 228 230 231 231 232 234 235 234 235 237 237 236 234 233 234 234 237 240 239 237 236 234 230 228 228 227 226 225 221 219 220 220 220 220 215 213 218 222 224 223 223 225 226 227 228 228 228 227 226 227 228
216 214 212 211 209 207 204 200 198 197 199 203 206 205 201 199 209 219 217 214 216 216 215 217 219 219 219 220 221 222 223 224 226 228 230 230 231 231 232 234 234 233 234 234 232 232 234 234 233 232 231 233 236 238 241 243 241 239 237 234 229 228 227 226 224 221 219 220 220 220 220 216 214 218 222 224 224 223 225 226 227 228 229 229 229 228 228 229
215 213 211 209 207 205 202 199 197 197 198 202 203 200 198 196 200 210 213 211 212 215 215 215 218 219 220 219 220 222 222 221 222 224 228 230 230 230 230 231 231 231 231 230 229 227 227 227 227 228 229 231 235 238 241 243 244 244 242 238 233 229 227 225 222 219 218 219 220 220 221 218 215 219 222 224 226 224 225 227 227 228 229 229 230 229 228 229
213 211 209 207 206 202 200 199 197 196 197 200 202 198 195 195 195 200 206 208 210 212 212 213 216 217 217 217 218 218 217 216 217 218 220 221 220 221 222 222 223 223 223 223 223 221 219 220 221 223 225 228 232 235 238 239 241 244 246 242 237 233 229 224 220 217 217 219 220 220 222 220 216 218 222 224 226 225 225 227 227 228 229 228 231 231 229 229
211 210 208 206 204 201 200 198 197 197 195 197 200 195 193 194 193 194 200 206 210 211 211 212 214 214 214 215 216 216 215 215 215 215 217 216 213 212 213 214 215 216 216 217 219 218 217 217 218 221 223 225 229 232 234 236 238 241 243 243 240 236 232 226 219 215 215 217 218 219 222 222 217 217 221 223 226 226 225 226 227 228 230 230 230 233 232 231
209 209 207 205 204 203 202 198 198 198 193 194 198 194 193 194 190 191 200 208 210 210 210 210 211 213 212 212 212 213 216 218 216 215 214 212 210 209 210 209 209 212 213 215 216 215 216 216 216 219 221 223 226 229 230 232 235 238 240 242 244 240 235 230 222 216 214 216 217 218 220 223 219 216 220 223 224 226 226 225 227 228 230 231 230 231 231 231
208 207 205 204 203 203 201 199 200 198 189 189 197 195 193 193 190 192 202 210 211 209 209 209 209 211 211 209 208 209 211 214 215 216 216 213 209 208 208 208 207 207 207 208 208 208 210 209 209 211 213 216 220 224 226 228 231 234 237 241 244 244 240 235 227 219 216 215 216 217 219 223 222 215 218 223 224 225 227 225 226 228 229 231 230 230 230 231
208 206 203 202 202 201 199 199 201 200 192 187 193 197 195 193 193 196 205 210 209 208 208 208 208 210 209 207 208 209 210 211 212 213 215 215 212 208 207 206 208 207 202 200 201 201 202 203 205 206 208 212 216 219 222 224 227 228 232 237 239 241 241 238 232 224 219 217 215 216 217 222 223 217 215 222 224 224 226 226 226 228 228 229 231 231 231 231
205 203 201 201 202 200 199 199 201 203 200 192 190 196 195 195 197 201 207 209 207 207 207 206 207 208 208 209 209 210 211 212 212 212 213 213 212 210 208 207 208 208 204 199 198 200 201 202 205 206 209 214 217 220 222 223 225 226 228 232 234 236 236 236 233 227 223 222 218 215 216 220 224 220 214 219 224 224 225 227 227 228 228 228 229 231 232 232
200 199 198 200 201 200 199 201 201 204 205 200 195 197 196 197 201 204 207 208 207 207 205 205 205 206 208 211 212 213 214 214 213 214 215 216 215 215 214 213 212 211 209 203 200 201 203 205 206 208 212 217 220 224 226 227 227 226 227 229 230 233 233 234 235 232 231 230 223 217 217 220 224 222 215 216 222 224 225 226 226 228 229 228 228 230 232 233
194 192 193 197 198 196 198 202 203 205 208 205 200 199 198 200 205 206 206 206 207 208 206 206 207 207 209 211 211 212 214 216 216 215 215 216 217 218 219 219 216 213 212 208 206 205 206 208 209 212 216 221 224 227 230 233 233 231 229 229 230 232 234 236 238 239 238 236 228 220 219 222 224 224 218 215 219 223 224 226 226 226 229 230 229 229 231 233
189 186 189 191 191 192 195 199 201 204 210 208 204 202 200 203 208 207 204 204 205 207 207 207 207 207 208 211 212 211 211 214 215 216 215 215 216 216 218 220 216 211 210 210 210 212 216 219 221 223 225 227 229 230 232 234 235 234 233 233 235 238 240 241 242 244 242 238 231 224 222 225 226 227 223 217 219 222 223 225 227 226 227 230 230 230 231 233
183 183 186 186 186 189 192 193 195 198 203 206 207 207 205 207 211 209 205 204 203 204 205 205 205 206 207 209 211 211 212 213 213 214 215 216 217 218 219 222 220 215 213 214 216 218 222 227 230 232 233 234 235 235 234 233 233 234 234 235 238 241 242 241 242 245 242 236 233 230 229 230 230 229 228 222 220 223 225 226 227 227 228 229 230 232 233 234
181 183 185 185 185 188 189 189 192 193 196 200 204 207 209 211 214 213 207 203 202 204 203 201 203 206 207 208 208 209 211 213 214 215 215 215 217 217 218 220 222 222 223 226 229 230 229 228 226 225 226 230 233 233 233 234 234 235 235 236 237 237 238 241 241 242 241 237 237 236 235 234 231 231 231 227 223 224 226 228 228 228 228 230 231 233 234 235
183 185 186 186 186 188 187 187 190 190 192 198 202 205 209 210 211 212 209 203 202 205 204 202 202 205 207 208 208 209 210 211 213 215 215 215 216 217 219 221 224 228 232 235 235 234 233 230 226 224 225 227 230 231 232 232 233 235 237 238 235 232 234 238 239 240 240 241 241 240 238 236 233 232 233 231 227 226 228 230 231 230 230 231 233 235 234 235
184 185 187 186 186 188 188 187 190 190 190 197 204 206 209 208 206 207 207 205 203 204 205 206 205 205 208 209 209 211 211 211 213 214 215 217 218 219 222 225 227 230 235 237 233 229 229 228 226 226 228 230 232 234 234 234 234 236 237 238 236 236 239 239 240 242 243 244 244 242 239 237 235 234 234 234 232 229 229 232 235 235 233 232 234 236 237 237
185 186 187 186 185 188 188 188 192 195 195 198 203 206 208 207 204 204 204 204 204 203 204 207 209 208 209 211 211 213 213 214 216 217 217 219 221 220 222 224 227 228 232 234 231 227 226 225 224 224 228 230 231 234 235 236 236 235 235 235 234 237 240 241 243 246 246 247 249 247 243 240 238 236 235 236 235 233 231 232 236 238 238 236 235 236 239 239
187 187 187 185 182 184 187 190 194 198 200 202 204 206 209 209 207 206 206 205 204 204 204 206 209 210 210 211 212 214 216 216 217 218 219 221 222 221 221 222 224 226 228 228 227 224 222 221 221 220 223 226 229 233 235 236 237 236 236 238 237 239 240 241 243 244 245 247 248 249 247 242 240 239 237 237 238 237 234 234 236 239 241 241 239 238 239 240
187 187 186 182 180 182 187 192 196 199 201 202 204 206 209 210 209 208 209 208 205 205 205 207 209 210 211 212 213 215 217 218 218 217 219 223 223 221 220 222 223 224 225 225 225 224 221 221 222 221 222 226 229 231 233 234 237 237 237 237 238 240 242 244 246 245 247 249 250 252 250 243 241 242 239 238 240 240 238 237 237 239 241 243 243 242 241 241
188 187 183 180 180 183 188 193 195 197 199 200 202 204 207 210 210 209 210 210 206 205 207 209 210 212 213 214 216 218 219 218 218 218 219 222 223 221 219 220 220 221 223 224 224 224 222 221 221 222 223 225 227 229 231 233 234 234 235 234 232 233 233 237 240 242 247 251 252 255 252 238 236 242 240 238 240 241 240 238 238 240 241 242 244 245 244 244
185 182 180 180 182 184 188 192 193 193 196 198 200 203 206 210 212 211 211 210 207 206 207 209 211 212 213 214 217 220 218 214 212 214 215 216 217 217 216 217 219 219 220 221 221 222 221 220 220 221 221 221 222 222 223 226 229 233 236 234 232 232 232 233 235 237 242 244 244 249 247 236 232 239 240 238 238 239 240 239 239 240 242 243 244 245 247 247
186 182 181 182 182 183 186 188 188 189 193 196 198 201 204 209 214 215 214 211 207 206 207 209 210 211 212 215 216 218 219 218 214 212 213 214 215 216 215 216 218 220 221 223 223 222 221 221 220 220 219 219 219 217 219 224 228 231 232 231 230 229 230 233 234 237 240 242 245 247 246 246 246 245 245 244 241 240 240 241 241 242 243 245 245 246 248 249
193 188 185 186 181 178 181 184 187 191 193 194 198 203 206 210 215 217 216 211 207 207 208 209 210 210 212 215 214 213 215 219 218 214 213 214 216 217 217 217 219 221 222 224 225 225 224 225 225 224 224 223 223 225 230 232 232 232 233 233 232 232 234 236 238 242 245 248 251 250 250 258 259 243 239 241 239 239 240 239 240 240 242 244 245 247 248 250
193 189 186 188 186 181 180 184 190 195 195 196 199 205 208 211 213 216 216 212 207 207 210 211 211 211 211 212 211 209 209 212 214 215 215 215 216 218 220 220 220 221 222 224 225 225 226 228 229 230 232 233 235 238 241 241 240 242 245 246 244 241 242 242 241 243 248 249 251 250 250 253 246 228 226 229 232 237 239 239 240 240 242 244 245 246 247 249
191 189 186 187 185 184 185 186 190 195 197 199 202 205 208 210 212 214 214 211 208 208 210 212 212 212 211 210 208 208 209 210 211 213 215 217 218 220 222 223 222 222 223 225 227 227 228 229 229 230 232 233 235 236 237 237 239 243 246 247 246 245 244 243 241 237 235 240 245 243 240 243 240 230 228 229 232 237 240 242 243 243 243 244 245 246 247 248
189 188 187 186 184 184 186 188 191 194 197 200 203 206 207 209 213 214 210 207 207 209 211 211 211 212 213 211 209 209 210 210 210 212 213 215 217 219 222 224 224 224 225 227 228 229 230 231 230 230 230 230 231 230 228 227 228 232 236 236 238 240 240 239 238 233 232 240 246 239 230 236 241 237 231 229 234 241 244 246 247 245 245 245 245 247 248 249
188 186 185 186 187 186 188 191 195 197 199 202 205 209 211 211 213 213 209 205 205 208 211 211 210 212 212 211 210 211 211 211 211 212 212 214 216 217 219 221 222 223 224 226 228 229 229 229 228 229 229 229 229 229 228 225 224 225 229 231 232 233 232 235 240 239 238 243 244 234 227 231 237 239 236 236 242 246 245 247 248 247 247 247 246 246 246 246
189 186 184 184 187 189 190 193 198 200 202 205 208 212 215 216 216 214 209 207 206 207 209 210 211 212 212 211 211 212 213 213 213 213 213 213 214 215 217 218 219 221 222 223 224 225 226 228 227 227 228 227 226 228 228 226 225 225 225 225 226 226 231 241 245 238 238 244 244 238 235 234 236 241 246 249 250 250 249 250 252 253 252 252 250 249 248 247
192 188 185 186 188 192 194 196 199 202 204 207 210 213 216 218 220 217 210 208 208 209 209 209 210 212 212 211 211 212 212 213 213 214 215 216 217 218 219 219 218 220 222 222 222 222 224 226 227 227 228 226 225 227 228 227 227 226 224 223 226 231 237 243 241 236 240 249 249 244 244 244 241 243 253 255 251 249 249 248 246 246 247 247 247 248 248 249
189 186 186 189 191 194 197 200 203 205 207 211 213 215 216 217 218 216 210 207 208 210 211 210 210 210 211 210 210 209 210 211 212 214 217 221 223 224 225 225 224 224 225 225 226 225 225 227 227 229 230 228 227 229 230 231 231 228 226 228 232 234 235 235 235 239 244 246 245 247 252 254 249 240 238 241 244 246 245 241 237 236 240 244 247 249 251 252
Height
5673 5679 5685 5690 5695 5700 5705 5709 5713 5718 5722 5726 5730 5734 5738 5743 5747 5751 5755 5759 5763 5768 5771 5774 5778 5781 5784 5788 5791 5795 5797 5799 5801 5803 5806 5809 5811 5813 5817 5820 5822 5823 5825 5829 5832 5834 5836 5837 5840 5842 5843 5845 5847 5849 5852 5854 5856 5858 5860 5863 5865 5866 5867 5869 5871 5873 5876 5877 5880 5882 5883 5886 5887 5888 5889 5890 5893 5894 5894 5896 5896 5896 5897 5898 5899 5900 5901 5901
5665 5672 5679 5684 5689 5695 5699 5703 5708 5712 5717 5721 5724 5728 5733 5737 5742 5746 5750 5754 5758 5762 5766 5770 5773 5777 5781 5784 5787 5790 5792 5794 5796 5800 5803 5805 5807 5810 5813 5816 5819 5821 5823 5826 5830 5831 5833 5834 5837 5839 5840 5842 5845 5847 5849 5852 5854 5855 5858 5861 5865 5866 5866 5868 5869 5872 5874 5876 5878 5879 5881 5883 5884 5886 5888 5889 5891 5892 5894 5895 5895 5896 5896 5897 5898 5899 5900 5900
5658 5665 5672 5677 5684 5688 5692 5697 5702 5706 5711 5715 5719 5723 5728 5732 5737 5741 5745 5749 5753 5757 5761 5765 5769 5773 5777 5780 5784 5786 5788 5790 5791 5796 5801 5802 5803 5806 5809 5813 5816 5819 5820 5822 5827 5828 5829 5832 5834 5836 5837 5839 5842 5844 5846 5849 5852 5853 5855 5859 5864 5865 5864 5865 5867 5870 5872 5873 5875 5877 5879 5881 5883 5885 5887 5888 5890 5891 5893 5894 5894 5894 5894 5895 5897 5897 5898 5899
5651 5658 5664 5670 5676 5681 5686 5691 5696 5701 5705 5710 5714 5718 5723 5727 5731 5736 5741 5745 5748 5752 5756 5760 5764 5768 5772 5776 5779 5781 5783 5784 5787 5794 5798 5799 5800 5802 5805 5809 5813 5815 5817 5819 5823 5824 5827 5830 5831 5833 5835 5836 5838 5840 5843 5846 5848 5850 5853 5857 5862 5861 5860 5862 5865 5867 5869 5871 5873 5874 5877 5880 5882 5883 5885 5887 5889 5891 5892 5892 5892 5892 5893 5894 5895 5896 5897 5898
5643 5650 5655 5662 5669 5674 5680 5684 5690 5695 5699 5704 5709 5713 5718 5722 5726 5731 5736 5740 5744 5748 5752 5755 5759 5763 5767 5771 5774 5777 5778 5779 5784 5790 5793 5795 5796 5798 5801 5805 5809 5811 5814 5816 5818 5820 5824 5827 5828 5831 5832 5834 5836 5837 5839 5843 5845 5847 5850 5855 5858 5857 5857 5860 5862 5865 5867 5868 5871 5873 5876 5877 5879 5881 5884 5886 5888 5889 5888 5889 5890 5891 5891 5893 5894 5895 5896 5897
5635 5642 5648 5655 5662 5669 5675 5679 5684 5689 5693 5698 5703 5708 5713 5717 5721 5726 5731 5735 5739 5743 5747 5750 5754 5758 5762 5766 5769 5772 5774 5775 5781 5786 5787 5790 5792 5794 5797 5800 5804 5807 5810 5812 5813 5816 5820 5822 5825 5828 5830 5832 5834 5835 5837 5840 5842 5844 5848 5852 5854 5853 5854 5857 5859 5863 5864 5866 5869 5871 5873 5874 5877 5880 5882 5884 5885 5885 5886 5888 5889 5889 5890 5891 5892 5894 5895 5895
5626 5634 5640 5647 5656 5663 5669 5673 5678 5684 5687 5692 5698 5703 5707 5712 5716 5720 5725 5730 5734 5738 5742 5745 5749 5753 5757 5761 5763 5766 5770 5772 5778 5782 5784 5786 5788 5791 5793 5796 5800 5803 5806 5809 5810 5813 5816 5819 5822 5824 5828 5829 5830 5833 5834 5837 5839 5841 5845 5849 5850 5850 5852 5854 5857 5860 5862 5864 5867 5867 5869 5872 5875 5877 5879 5882 5883 5883 5886 5887 5887 5888 5889 5890 5891 5892 5893 5894
5617 5625 5633 5641 5649 5656 5663 5669 5673 5678 5682 5686 5691 5697 5702 5707 5711 5715 5720 5724 5729 5734 5737 5741 5744 5747 5752 5756 5759 5762 5766 5770 5775 5779 5781 5783 5786 5788 5790 5792 5796 5799 5802 5806 5808 5810 5813 5816 5819 5821 5824 5825 5827 5830 5831 5834 5836 5838 5843 5846 5847 5848 5850 5851 5854 5858 5859 5861 5863 5864 5867 5870 5871 5874 5878 5880 5880 5881 5883 5884 5886 5887 5888 5889 5889 5890 5891 5892
5609 5617 5626 5634 5641 5649 5658 5664 5667 5672 5678 5682 5686 5691 5696 5701 5706 5710 5715 5720 5725 5729 5733 5736 5739 5743 5746 5750 5754 5757 5763 5768 5771 5775 5777 5780 5783 5785 5786 5788 5792 5795 5798 5803 5805 5807 5810 5813 5815 5818 5821 5823 5825 5826 5828 5831 5832 5835 5839 5842 5843 5845 5847 5848 5850 5855 5857 5858 5860 5863 5865 5866 5868 5872 5876 5877 5878 5880 5881 5882 5884 5885 5886 5887 5887 5888 5889 5890
5600 5608 5617 5626 5633 5642 5651 5659 5663 5668 5673 5677 5681 5686 5691 5696 5701 5706 5710 5715 5720 5724 5728 5732 5735 5738 5741 5745 5749 5753 5760 5765 5767 5770 5773 5776 5780 5782 5784 5785 5788 5790 5793 5798 5802 5804 5806 5809 5812 5815 5816 5819 5822 5823 5825 5827 5828 5832 5836 5839 5840 5842 5843 5844 5847 5851 5854 5855 5858 5861 5862 5863 5865 5869 5873 5875 5877 5878 5879 5881 5882 5883 5884 5885 5885 5887 5888 5889
5591 5599 5609 5618 5626 5635 5644 5653 5659 5663 5668 5673 5676 5680 5686 5691 5696 5701 5706 5710 5715 5719 5723 5727 5730 5734 5737 5740 5743 5749 5757 5760 5762 5765 5769 5773 5776 5779 5781 5783 5784 5786 5789 5793 5798 5800 5802 5805 5809 5811 5812 5815 5819 5820 5821 5823 5825 5828 5833 5836 5837 5839 5840 5841 5844 5848 5851 5853 5855 5857 5858 5859 5862 5867 5871 5872 5874 5875 5877 5878 5880 5881 5882 5883 5884 5885 5886 5887
5582 5591 5600 5610 5619 5628 5638 5646 5652 5656 5663 5669 5672 5675 5681 5686 5691 5696 5701 5705 5710 5714 5718 5722 5725 5729 5733 5735 5739 5745 5751 5755 5759 5761 5764 5769 5772 5775 5777 5778 5780 5781 5783 5787 5792 5796 5798 5801 5804 5807 5809 5812 5815 5816 5818 5821 5822 5825 5829 5832 5833 5835 5837 5838 5841 5845 5848 5849 5851 5853 5854 5855 5860 5866 5868 5869 5871 5872 5874 5876 5878 5879 5880 5881 5882 5883 5885 5885
5575 5583 5591 5602 5612 5621 5631 5640 5645 5651 5658 5664 5667 5671 5676 5681 5686 5692 5697 5701 5706 5711 5714 5717 5721 5724 5727 5730 5735 5741 5745 5749 5754 5756 5760 5765 5768 5771 5773 5774 5776 5777 5778 5782 5787 5791 5795 5798 5800 5802 5806 5808 5809 5812 5815 5817 5818 5821 5825 5827 5829 5830 5833 5835 5837 5841 5844 5845 5846 5848 5849 5854 5861 5864 5863 5866 5868 5868 5871 5874 5875 5876 5878 5879 5880 5881 5882 5884
5567 5575 5583 5594 5604 5613 5624 5633 5640 5646 5654 5659 5663 5666 5671 5677 5682 5687 5693 5697 5702 5707 5709 5712 5715 5717 5721 5725 5730 5736 5740 5744 5749 5753 5756 5760 5764 5766 5768 5771 5773 5774 5776 5778 5783 5787 5791 5794 5797 5799 5802 5804 5806 5809 5811 5812 5814 5818 5819 5822 5825 5827 5830 5832 5834 5838 5841 5842 5843 5844 5847 5853 5859 5858 5858 5862 5864 5865 5869 5871 5872 5873 5875 5877 5878 5879 5880 5882
5560 5568 5576 5585 5596 5607 5616 5627 5636 5643 5649 5654 5658 5661 5666 5672 5678 5683 5688 5692 5698 5703 5706 5708 5709 5711 5714 5719 5725 5731 5735 5739 5744 5749 5752 5756 5759 5761 5764 5768 5770 5772 5772 5775 5780 5782 5785 5789 5792 5795 5798 5802 5803 5804 5806 5808 5811 5813 5815 5819 5821 5824 5828 5829 5830 5834 5838 5839 5840 5840 5844 5851 5854 5853 5855 5859 5861 5863 5866 5868 5870 5871 5873 5874 5875 5876 5878 5879
5553 5561 5569 5578 5589 5599 5609 5621 5631 5638 5645 5650 5654 5658 5662 5667 5673 5678 5683 5688 5694 5699 5701 5701 5703 5707 5710 5713 5720 5726 5731 5735 5740 5744 5748 5751 5754 5756 5760 5762 5765 5767 5768 5771 5775 5777 5780 5783 5786 5790 5794 5798 5799 5800 5803 5805 5807 5809 5811 5814 5817 5821 5824 5826 5827 5830 5833 5835 5836 5837 5841 5847 5849 5849 5852 5857 5859 5861 5863 5866 5867 5869 5870 5872 5873 5874 5875 5876
5547 5555 5563 5571 5582 5592 5602 5613 5624 5632 5638 5643 5649 5653 5657 5663 5668 5672 5678 5684 5689 5694 5698 5698 5700 5703 5703 5707 5716 5723 5728 5732 5736 5740 5744 5747 5749 5751 5755 5757 5760 5762 5763 5767 5771 5774 5776 5778 5782 5785 5788 5792 5795 5796 5799 5801 5804 5806 5807 5809 5813 5817 5820 5822 5823 5826 5829 5831 5833 5834 5839 5844 5845 5846 5850 5854 5856 5858 5861 5864 5865 5866 5867 5868 5870 5871 5873 5874
5540 5548 5556 5565 5575 5585 5595 5606 5616 5624 5630 5637 5643 5649 5655 5660 5663 5666 5672 5679 5684 5688 5692 5691 5692 5693 5695 5706 5716 5722 5726 5730 5733 5737 5742 5745 5746 5749 5752 5753 5756 5759 5760 5764 5767 5770 5773 5775 5778 5780 5782 5787 5791 5793 5795 5799 5803 5804 5803 5806 5809 5812 5814 5817 5820 5823 5826 5828 5830 5832 5836 5840 5842 5843 5846 5850 5853 5855 5858 5861 5862 5863 5864 5865 5867 5869 5870 5872
5533 5542 5550 5559 5569 5579 5589 5599 5608 5616 5623 5631 5639 5647 5651 5652 5655 5659 5663 5670 5673 5675 5678 5679 5683 5688 5698 5709 5715 5719 5723 5725 5728 5732 5737 5740 5742 5745 5748 5749 5752 5755 5757 5761 5764 5766 5770 5772 5774 5777 5781 5785 5788 5791 5793 5796 5798 5797 5798 5801 5804 5807 5810 5813 5816 5819 5822 5824 5827 5829 5833 5837 5839 5841 5843 5847 5850 5852 5855 5856 5858 5860 5862 5863 5865 5867 5868 5870
5525 5535 5545 5552 5563 5574 5584 5593 5602 5610 5617 5624 5632 5635 5631 5629 5635 5642 5651 5662 5669 5673 5678 5682 5688 5693 5700 5706 5710 5714 5716 5717 5721 5726 5731 5735 5737 5740 5744 5746 5748 5751 5754 5757 5760 5763 5766 5769 5771 5776 5779 5782 5784 5786 5788 5789 5790 5790 5792 5795 5799 5802 5806 5810 5812 5814 5817 5820 5823 5827 5830 5834 5837 5838 5840 5843 5846 5848 5850 5852 5855 5858 5860 5861 5863 5864 5865 5867
5518 5528 5537 5546 5557 5568 5578 5588 5598 5607 5614 5620 5624 5621 5617 5618 5626 5636 5649 5661 5667 5672 5677 5683 5688 5690 5696 5703 5708 5709 5709 5712 5718 5721 5726 5729 5732 5735 5739 5742 5744 5748 5752 5754 5756 5759 5762 5765 5770 5774 5775 5777 5779 5780 5782 5783 5783 5785 5788 5791 5794 5798 5802 5805 5807 5810 5813 5816 5819 5823 5826 5830 5833 5834 5835 5838 5842 5844 5846 5849 5852 5855 5857 5858 5859 5861 5863 5864
5510 5520 5531 5540 5550 5561 5572 5583 5593 5602 5610 5613 5614 5616 5620 5626 5635 5646 5656 5658 5657 5662 5669 5673 5675 5680 5689 5695 5698 5700 5702 5709 5714 5717 5721 5724 5727 5731 5735 5738 5741 5746 5749 5750 5753 5755 5759 5763 5767 5769 5770 5772 5774 5776 5778 5778 5779 5782 5785 5788 5791 5795 5798 5800 5802 5806 5808 5811 5814 5817 5821 5826 5830 5830 5831 5833 5837 5840 5842 5845 5848 5851 5852 5854 5856 5858 5859 5860
5502 5513 5524 5533 5543 5555 5565 5576 5586 5593 5598 5601 5604 5612 5619 5626 5635 5645 5652 5654 5654 5657 5663 5665 5666 5673 5681 5686 5689 5692 5697 5703 5708 5714 5718 5721 5725 5729 5731 5735 5739 5742 5744 5747 5751 5754 5758 5761 5762 5764 5766 5768 5770 5772 5774 5774 5777 5779 5782 5785 5788 5791 5794 5796 5799 5802 5804 5806 5809 5812 5816 5821 5825 5826 5826 5828 5832 5836 5838 5841 5844 5846 5848 5851 5853 5855 5855 5857
5496 5507 5517 5527 5538 5548 5558 5570 5577 5580 5585 5593 5600 5608 5614 5620 5629 5637 5644 5649 5651 5655 5661 5664 5666 5672 5679 5684 5688 5689 5693 5700 5705 5710 5715 5719 5723 5726 5729 5733 5736 5739 5742 5746 5748 5751 5755 5755 5755 5759 5762 5764 5766 5769 5770 5772 5775 5776 5779 5782 5785 5787 5789 5792 5795 5797 5799 5801 5804 5808 5811 5816 5820 5821 5822 5824 5828 5832 5835 5837 5840 5843 5846 5848 5850 5851 5852 5855
5489 5499 5511 5522 5531 5542 5554 5559 5562 5570 5581 5589 5594 5600 5607 5614 5624 5632 5639 5643 5644 5648 5654 5657 5660 5667 5675 5679 5682 5687 5694 5699 5702 5707 5714 5718 5720 5722 5726 5729 5732 5735 5739 5742 5744 5747 5749 5748 5750 5754 5758 5760 5762 5765 5768 5770 5772 5774 5777 5780 5781 5783 5784 5786 5788 5791 5794 5796 5799 5803 5804 5810 5817 5817 5819 5822 5823 5828 5832 5833 5837 5840 5843 5845 5845 5847 5850 5852
5483 5493 5505 5515 5525 5536 5541 5542 5552 5567 5576 5580 5587 5594 5602 5610 5618 5627 5636 5638 5636 5638 5645 5652 5655 5660 5669 5672 5676 5684 5690 5694 5699 5705 5710 5712 5714 5717 5720 5724 5728 5730 5733 5736 5739 5742 5743 5743 5746 5750 5753 5756 5759 5762 5764 5767 5769 5771 5774 5776 5776 5777 5778 5779 5782 5785 5788 5790 5794 5798 5799 5806 5813 5814 5816 5819 5819 5824 5828 5830 5833 5836 5838 5841 5842 5845 5848 5849
5476 5487 5498 5509 5518 5523 5524 5535 5551 5559 5563 5573 5584 5590 5597 5606 5614 5624 5632 5630 5626 5630 5640 5647 5650 5656 5665 5667 5671 5677 5681 5688 5694 5699 5704 5707 5708 5712 5715 5719 5723 5725 5726 5729 5733 5737 5739 5741 5743 5746 5749 5753 5756 5759 5761 5763 5765 5768 5770 5770 5771 5772 5773 5774 5776 5778 5782 5786 5789 5793 5796 5800 5806 5810 5812 5813 5814 5818 5823 5826 5829 5832 5835 5838 5841 5842 5845 5846
5470 5481 5493 5502 5510 5514 5524 5540 5547 5549 5561 5575 5582 5588 5593 5602 5612 5620 5622 5616 5614 5624 5634 5640 5647 5655 5661 5663 5667 5673 5679 5686 5689 5693 5698 5701 5703 5708 5711 5715 5718 5720 5722 5726 5731 5735 5736 5738 5741 5743 5747 5751 5755 5757 5758 5759 5762 5764 5765 5766 5767 5768 5769 5770 5772 5774 5777 5780 5783 5788 5792 5794 5799 5807 5808 5808 5810 5814 5818 5823 5826 5829 5832 5835 5837 5839 5841 5843
5465 5476 5487 5497 5505 5514 5527 5538 5543 5553 5567 5573 5578 5587 5593 5600 5609 5612 5609 5604 5607 5619 5629 5635 5642 5648 5653 5658 5663 5668 5676 5681 5686 5692 5695 5696 5699 5704 5707 5711 5712 5714 5718 5723 5727 5729 5730 5734 5737 5740 5744 5748 5751 5752 5753 5756 5758 5760 5761 5762 5763 5764 5766 5767 5768 5769 5771 5774 5778 5784 5788 5788 5793 5802 5804 5803 5806 5810 5814 5819 5822 5825 5828 5830 5833 5835 5837 5839
5459 5471 5481 5491 5497 5504 5517 5528 5539 5553 5561 5565 5573 5582 5588 5593 5598 5598 5594 5593 5602 5614 5622 5629 5635 5640 5647 5653 5657 5663 5669 5674 5680 5686 5689 5693 5697 5699 5702 5704 5705 5709 5713 5716 5719 5722 5726 5730 5733 5737 5741 5743 5745 5746 5749 5752 5754 5755 5756 5758 5760 5761 5763 5764 5764 5765 5765 5768 5775 5779 5783 5783 5785 5794 5799 5799 5803 5807 5810 5814 5818 5821 5824 5826 5829 5831 5833 5835
5453 5465 5475 5483 5488 5498 5510 5518 5528 5540 5547 5557 5567 5573 5580 5585 5585 5582 5581 5589 5601 5608 5613 5622 5630 5636 5643 5648 5652 5658 5664 5668 5674 5676 5679 5685 5689 5693 5696 5698 5701 5705 5709 5712 5715 5719 5723 5726 5730 5735 5737 5739 5741 5742 5745 5747 5749 5750 5752 5753 5755 5756 5758 5759 5760 5760 5760 5765 5772 5775 5778 5778 5778 5787 5795 5797 5799 5804 5806 5810 5814 5817 5819 5822 5825 5827 5828 5830
5448 5459 5469 5478 5488 5500 5510 5514 5523 5534 5541 5550 5559 5566 5572 5574 5571 5570 5576 5589 5596 5597 5605 5617 5625 5632 5640 5647 5651 5656 5659 5663 5668 5671 5676 5682 5686 5692 5696 5698 5701 5704 5708 5711 5714 5717 5721 5724 5728 5731 5732 5735 5737 5739 5741 5743 5744 5746 5747 5749 5750 5751 5753 5754 5755 5757 5759 5764 5769 5772 5773 5773 5773 5781 5789 5793 5795 5799 5803 5806 5810 5812 5814 5818 5820 5822 5824 5826
5444 5455 5465 5475 5486 5497 5507 5516 5525 5532 5536 5545 5555 5561 5564 5560 5557 5562 5574 5584 5588 5594 5608 5619 5626 5633 5638 5640 5644 5650 5656 5661 5664 5668 5674 5680 5684 5689 5692 5695 5699 5702 5707 5711 5712 5714 5717 5720 5724 5726 5729 5731 5733 5736 5738 5740 5741 5742 5743 5744 5745 5746 5748 5749 5751 5754 5758 5762 5766 5769 5769 5768 5770 5775 5783 5789 5792 5795 5799 5802 5805 5808 5810 5813 5816 5818 5820 5821
5441 5451 5460 5471 5483 5494 5504 5514 5522 5527 5532 5541 5548 5551 5551 5549 5550 5559 5571 5580 5587 5597 5607 5614 5622 5629 5632 5634 5639 5647 5652 5656 5661 5665 5669 5673 5676 5681 5685 5690 5696 5700 5704 5707 5710 5713 5716 5719 5723 5724 5726 5728 5730 5733 5735 5737 5738 5739 5741 5742 5743 5744 5745 5747 5750 5752 5756 5759 5762 5764 5765 5766 5769 5772 5778 5786 5789 5791 5796 5798 5801 5805 5807 5809 5811 5813 5815 5817
5439 5448 5457 5466 5476 5485 5497 5509 5518 5524 5529 5534 5539 5539 5538 5540 5546 5556 5567 5576 5586 5594 5600 5608 5617 5622 5625 5630 5637 5644 5647 5650 5656 5660 5663 5667 5673 5679 5685 5691 5695 5697 5700 5703 5707 5711 5714 5718 5721 5722 5724 5725 5727 5729 5731 5733 5734 5736 5738 5739 5741 5743 5744 5746 5748 5750 5754 5755 5756 5759 5762 5765 5769 5770 5774 5782 5786 5788 5792 5795 5798 5801 5803 5805 5807 5809 5811 5812
5436 5443 5450 5458 5466 5477 5491 5503 5513 5520 5525 5528 5530 5529 5533 5539 5547 5557 5567 5577 5585 5590 5595 5603 5609 5614 5619 5624 5630 5636 5641 5648 5653 5655 5660 5666 5673 5679 5685 5689 5691 5694 5698 5702 5705 5708 5710 5713 5715 5716 5718 5720 5722 5725 5727 5728 5730 5732 5734 5736 5739 5741 5742 5744 5745 5747 5749 5750 5752 5755 5759 5763 5766 5767 5770 5778 5783 5785 5788 5791 5794 5797 5799 5801 5803 5805 5806 5807
5430 5436 5442 5451 5462 5474 5486 5497 5507 5514 5520 5524 5523 5525 5534 5544 5553 5563 5571 5579 5585 5588 5592 5594 5598 5606 5612 5617 5623 5629 5636 5643 5647 5651 5658 5663 5668 5674 5680 5683 5687 5691 5696 5699 5702 5705 5707 5710 5711 5712 5714 5716 5718 5720 5722 5725 5727 5729 5731 5734 5736 5737 5739 5740 5741 5742 5744 5745 5748 5752 5755 5758 5761 5763 5768 5774 5779 5782 5785 5788 5790 5793 5796 5798 5799 5800 5802 5803
5428 5435 5442 5450 5460 5472 5483 5495 5503 5508 5513 5517 5519 5527 5538 5545 5553 5561 5567 5573 5578 5581 5586 5591 5596 5603 5609 5614 5621 5626 5633 5638 5640 5647 5655 5659 5666 5673 5677 5681 5685 5689 5692 5695 5698 5701 5703 5706 5708 5710 5712 5714 5715 5717 5719 5721 5724 5726 5728 5731 5733 5734 5736 5737 5737 5739 5741 5742 5744 5747 5750 5752 5756 5761 5765 5770 5775 5780 5783 5785 5787 5789 5791 5794 5795 5796 5798 5799
5427 5433 5440 5449 5459 5470 5481 5491 5498 5502 5505 5508 5513 5524 5534 5540 5547 5555 5561 5567 5572 5576 5583 5590 5597 5603 5608 5616 5622 5626 5630 5634 5638 5645 5651 5657 5665 5672 5676 5679 5682 5685 5688 5691 5693 5696 5699 5701 5704 5707 5709 5710 5712 5713 5715 5718 5720 5723 5724 5727 5729 5731 5733 5734 5735 5737 5738 5740 5742 5744 5745 5747 5752 5759 5763 5767 5771 5775 5780 5782 5783 5784 5786 5788 5790 5792 5794 5795
5425 5431 5438 5447 5457 5468 5480 5489 5494 5494 5495 5502 5514 5524 5531 5538 5546 5554 5560 5566 5570 5575 5582 5589 5594 5600 5607 5615 5620 5624 5628 5632 5637 5643 5648 5655 5662 5668 5671 5674 5677 5681 5684 5686 5688 5691 5694 5696 5699 5702 5704 5705 5708 5710 5713 5715 5717 5719 5722 5724 5727 5729 5729 5731 5732 5733 5735 5736 5737 5738 5739 5743 5750 5756 5761 5765 5767 5771 5776 5778 5779 5780 5781 5783 5785 5787 5789 5791
5424 5430 5436 5444 5453 5464 5473 5480 5482 5484 5492 5506 5517 5524 5530 5538 5545 5552 5557 5563 5569 5575 5582 5588 5593 5599 5605 5611 5615 5621 5625 5629 5634 5640 5645 5651 5657 5662 5666 5669 5673 5676 5678 5679 5683 5687 5690 5692 5695 5697 5700 5702 5705 5708 5710 5712 5715 5717 5719 5722 5724 5726 5727 5728 5729 5730 5732 5733 5734 5735 5735 5740 5747 5752 5757 5762 5763 5767 5771 5773 5775 5776 5777 5778 5780 5782 5784 5786
5420 5425 5432 5440 5448 5458 5465 5469 5474 5484 5495 5504 5511 5518 5526 5533 5539 5546 5552 5558 5564 5572 5578 5584 5590 5596 5602 5607 5613 5618 5622 5625 5631 5637 5643 5649 5653 5658 5662 5664 5667 5669 5671 5675 5679 5682 5686 5688 5690 5693 5697 5700 5703 5705 5708 5709 5712 5714 5715 5718 5720 5721 5722 5723 5724 5727 5729 5730 5733 5733 5732 5736 5743 5747 5751 5756 5759 5762 5765 5768 5770 5771 5772 5774 5775 5776 5778 5780
5418 5426 5435 5441 5446 5453 5458 5463 5472 5483 5491 5499 5508 5517 5524 5529 5535 5541 5547 5553 5560 5566 5571 5577 5584 5591 5598 5604 5609 5614 5618 5622 5629 5635 5640 5644 5648 5652 5656 5658 5661 5662 5664 5669 5673 5677 5681 5683 5685 5689 5692 5695 5698 5701 5704 5706 5708 5709 5711 5713 5714 5716 5718 5719 5721 5724 5726 5727 5730 5730 5729 5733 5740 5743 5745 5749 5752 5755 5758 5762 5765 5766 5767 5768 5770 5771 5773 5774
5418 5426 5433 5440 5446 5452 5457 5461 5468 5476 5484 5494 5504 5510 5517 5524 5530 5535 5541 5550 5557 5562 5567 5573 5580 5588 5595 5601 5606 5611 5616 5620 5625 5631 5636 5640 5643 5646 5649 5653 5656 5658 5661 5666 5671 5674 5675 5677 5680 5683 5686 5688 5692 5695 5698 5701 5702 5703 5705 5707 5708 5711 5714 5716 5719 5721 5722 5725 5727 5727 5728 5731 5738 5741 5742 5744 5747 5750 5753 5756 5759 5761 5762 5763 5764 5766 5767 5769
5416 5424 5431 5437 5444 5450 5457 5464 5471 5477 5483 5492 5499 5505 5513 5521 5527 5533 5541 5549 5556 5562 5566 5571 5579 5587 5593 5597 5602 5607 5612 5617 5622 5627 5631 5635 5638 5641 5644 5649 5652 5656 5661 5664 5667 5670 5672 5673 5676 5678 5679 5683 5687 5691 5695 5697 5697 5699 5701 5703 5706 5709 5712 5715 5718 5719 5721 5724 5725 5725 5727 5730 5734 5737 5737 5739 5742 5744 5746 5749 5752 5755 5756 5757 5758 5760 5762 5763
5411 5417 5422 5428 5438 5447 5456 5464 5471 5476 5482 5489 5496 5503 5511 5518 5525 5531 5537 5544 5551 5558 5563 5569 5577 5581 5586 5591 5596 5601 5606 5612 5618 5623 5627 5631 5634 5637 5641 5646 5650 5654 5657 5659 5661 5665 5668 5670 5674 5677 5680 5684 5688 5693 5696 5697 5698 5700 5703 5705 5706 5708 5711 5713 5714 5717 5720 5721 5722 5723 5725 5726 5728 5731 5732 5734 5737 5739 5741 5743 5746 5748 5749 5750 5752 5754 5756 5756
5410 5413 5415 5418 5427 5437 5447 5456 5464 5473 5481 5489 5495 5502 5509 5516 5521 5525 5529 5536 5545 5552 5557 5564 5571 5575 5579 5585 5590 5597 5603 5608 5613 5619 5623 5627 5631 5635 5639 5642 5646 5650 5652 5654 5657 5661 5663 5666 5671 5675 5678 5682 5685 5689 5692 5694 5697 5699 5701 5703 5704 5706 5708 5709 5711 5715 5717 5717 5719 5722 5722 5721 5723 5726 5729 5731 5734 5736 5737 5739 5740 5741 5742 5744 5746 5748 5750 5750
5406 5416 5423 5428 5431 5436 5443 5453 5463 5472 5480 5488 5495 5500 5506 5511 5515 5518 5524 5531 5540 5547 5552 5557 5564 5571 5578 5584 5589 5594 5599 5603 5609 5614 5618 5622 5626 5630 5634 5637 5641 5645 5648 5650 5652 5656 5659 5663 5668 5671 5673 5676 5679 5682 5685 5688 5691 5693 5695 5698 5700 5702 5703 5705 5708 5711 5712 5713 5717 5719 5719 5718 5719 5722 5725 5728 5731 5732 5733 5734 5734 5735 5737 5739 5741 5743 5744 5744
5406 5414 5423 5433 5440 5446 5453 5461 5468 5473 5479 5486 5492 5496 5502 5507 5511 5517 5523 5528 5534 5541 5547 5554 5561 5569 5577 5583 5587 5590 5593 5599 5605 5610 5615 5619 5622 5625 5628 5630 5635 5639 5642 5645 5648 5651 5655 5658 5661 5664 5668 5671 5674 5676 5679 5682 5684 5686 5688 5692 5695 5697 5699 5701 5705 5707 5707 5710 5713 5715 5715 5716 5716 5718 5721 5724 5726 5728 5728 5729 5729 5731 5733 5735 5736 5737 5737 5737
5406 5413 5421 5428 5437 5445 5450 5456 5462 5468 5475 5482 5488 5493 5500 5506 5510 5515 5520 5525 5530 5536 5543 5552 5561 5568 5574 5579 5583 5587 5594 5601 5605 5609 5612 5614 5617 5620 5622 5624 5628 5632 5635 5638 5641 5645 5649 5651 5654 5658 5661 5664 5668 5670 5673 5676 5678 5680 5682 5685 5689 5692 5694 5697 5700 5700 5701 5705 5709 5710 5711 5714 5715 5716 5718 5720 5722 5722 5723 5725 5726 5728 5729 5730 5730 5730 5730 5731
5408 5416 5424 5429 5434 5441 5446 5451 5457 5463 5470 5477 5483 5489 5495 5501 5507 5512 5517 5523 5531 5536 5542 5549 5557 5565 5571 5575 5579 5587 5594 5600 5604 5608 5611 5613 5615 5618 5619 5621 5624 5626 5630 5633 5635 5639 5642 5644 5648 5652 5654 5658 5663 5665 5666 5669 5671 5672 5675 5679 5683 5686 5688 5692 5694 5695 5697 5703 5706 5706 5709 5713 5715 5716 5717 5716 5716 5717 5719 5721 5722 5723 5722 5721 5722 5722 5723 5724
5407 5414 5421 5426 5431 5437 5445 5451 5456 5461 5468 5476 5481 5485 5490 5497 5503 5508 5513 5520 5528 5536 5542 5548 5554 5560 5565 5570 5578 5585 5591 5595 5600 5605 5608 5611 5613 5616 5617 5620 5622 5623 5626 5630 5633 5636 5638 5640 5644 5648 5650 5655 5658 5659 5661 5663 5663 5664 5671 5679 5681 5681 5684 5686 5688 5691 5696 5699 5700 5702 5707 5709 5711 5712 5713 5712 5711 5713 5715 5716 5717 5716 5716 5715 5716 5717 5718 5719